Regional Weather Roundup
Issued by NWS

Home | Current Version | Previous Version | Text Only | Print | Product List | Glossary On
Versions: 1 2 3 4 5 6 7 8 9 10 11 12 13 14 15 16 17 18 19 20 21 22 23 24 25 26 27 28 29 30 31 32 33 34 35 36 37 38 39 40 41 42 43 44 45 46 47 48 49 50
000
ASUS43 KLMK 101402
RWRKY
KENTUCKY REGIONAL WEATHER ROUNDUP
NATIONAL WEATHER SERVICE LOUISVILLE KY
900 AM EST SAT DEC 10 2016

NOTE "FAIR" INDICATES FEW OR NO CLOUDS BELOW 12,000 FEET
WITH NO SIGNIFICANT WEATHER AND/OR OBSTRUCTIONS TO VISIBILITY.

KYZ001>023-026-027-061>063-070>075-101500-
WESTERN AND SOUTH CENTRAL KENTUCKY

CITY           SKY/WX    TMP DP  RH WIND       PRES   REMARKS
PADUCAH        CLOUDY    19  16  88 CALM      30.60S
HENDERSON      CLOUDY    25  19  80 CALM      30.61S
OWENSBORO      CLOUDY    23  20  88 CALM      30.61F
HOPKINSVILLE   SUNNY     20  16  83 CALM      30.60S
BOWLING GREEN  CLOUDY    20  17  88 CALM      30.64R
GLASGOW        NOT AVBL
$$

KYZ024-025-028>034-038-045-046-053-101500-
NORTH CENTRAL KENTUCKY

CITY           SKY/WX    TMP DP  RH WIND       PRES   REMARKS
LOUISVILLE/SDF MOSUNNY   23  15  71 S3        30.60S
LOUISVILLE/LOU SUNNY     22  16  78 CALM      30.60F
FORT KNOX      CLOUDY    18  14  84 S2        30.57S
$$

KYZ035>037-039>044-047>052-055>060-089>105-101500-
NORTHEAST KENTUCKY

CITY           SKY/WX    TMP DP  RH WIND       PRES   REMARKS
LEXINGTON      SUNNY     19  15  84 S5        30.58R FOG     WCI  12
COVINGTON      PTSUNNY   21  17  84 SW5       30.55S WCI  15
FRANKFORT      SUNNY     20  14  77 SW5       30.58S WCI  13
$$

KYZ054-064>069-076>088-106>120-101500-
SOUTHEAST KENTUCKY

CITY           SKY/WX    TMP DP  RH WIND       PRES   REMARKS
JACKSON        CLOUDY    20  15  81 CALM      30.55R
LONDON         SUNNY     17  13  84 CALM      30.57R
SOMERSET       FOG       19  19 100 CALM      30.62R VSB<1/4
MIDDLESBORO    SUNNY     17  15  91 CALM      30.58R
MONTICELLO     SUNNY     19  17  92 NE8       30.61R WCI   9
$$





USA.gov is the U.S. government's official web portal to all federal, state and local government web resources and services.